Regional Weather Roundup
Issued by NWS

Home | Current Version | Previous Version | Text Only | Print | Product List | Glossary On
Versions: 1 2 3 4 5 6 7 8 9 10 11 12 13 14 15 16 17 18 19 20 21 22 23 24 25 26 27 28 29 30 31 32 33 34 35 36 37 38 39 40 41 42 43 44 45 46 47 48 49 50
000
ASUS43 KLSX 181507
RWRMO

WEATHER SUMMARY FOR MISSOURI
NATIONAL WEATHER SERVICE SPRINGFIELD MO
1000 AM CDT THU SEP 18 2014

NOTE: "FAIR" INDICATES FEW OR NO CLOUDS BELOW 12,000 FEET WITH NO
       SIGNIFICANT WEATHER AND/OR OBSTRUCTIONS TO VISIBILITY.
       CURRENT SKY AND/OR WEATHER CONDITIONS ARE NOT AVAILABLE FOR
       CHILLICOTHE AND FARMINGTON.

MOZ001>031-035>038-043-044-053-054-181600-
...NORTHERN AND WESTERN MISSOURI...

CITY           SKY/WX    TMP DP  RH WIND       PRES   REMARKS
KANSAS CTY INT CLOUDY    61  59  93 E13       30.04R FOG
KANSAS C DTWN  CLOUDY    63  59  87 E9        30.02R
LEE`S SUMMIT   CLOUDY    62  60  93 E9        30.04R
ST JOSEPH      CLOUDY    60  59  96 E10       30.04R FOG
CHILLICOTHE      N/A     61  55  81 E9        30.08S
KIRKSVILLE     CLOUDY    59  56  89 E7        30.10S FOG

$$
MOZ066>068-077>081-088>096-101>105-181600-
...SOUTHWEST MISSOURI...

CITY           SKY/WX    TMP DP  RH WIND       PRES   REMARKS
SPRINGFIELD    CLOUDY    67  64  90 NE14      29.98F
JOPLIN         CLOUDY    68  63  84 N6        29.97R

$$
MOZ032>034-039>042-045>050-055>058-069>072-181600-
...CENTRAL MISSOURI...

CITY           SKY/WX    TMP DP  RH WIND       PRES   REMARKS
COLUMBIA       FOG       60  60 100 E6        30.06S VSB 1
JEFFERSON CITY CLOUDY    62  59  90 E6        30.06R FOG
ROLLA          CLOUDY    60  58  92 E8        30.05R
SEDALIA        CLOUDY    61  60  97 E8        30.05R FOG
WHITEMAN AFB   CLOUDY    62  60  94 E7        30.03S
OSAGE BEACH    CLOUDY    63  59  88 E7        30.04S

$$
MOZ051-052-059>065-181600-
...EAST CENTRAL MISSOURI...

CITY           SKY/WX    TMP DP  RH WIND       PRES   REMARKS
ST LOUIS INTL  CLOUDY    64  56  75 E9        30.09R
SPIRIT OF STL  CLOUDY    64  57  78 SE6       30.07R
ST CHARLES     CLOUDY    64  55  72 E7        30.08R

$$
MOZ072>076-082>087-097>100-106>115-181600-
...SOUTH CENTRAL AND SOUTHEAST MISSOURI...

CITY           SKY/WX    TMP DP  RH WIND       PRES   REMARKS
CAPE GIRARDEAU CLOUDY    65  60  84 NE7       30.04R
FARMINGTON     CLOUDY    63  59  88 NE6       30.08R
POPLAR BLUFF   CLOUDY    65  58  78 N5        30.02R
WEST PLAINS    CLOUDY    60  59  96 E7        30.05S FOG

$$


USA.gov is the U.S. government's official web portal to all federal, state and local government web resources and services.